Meteo Giornale » Osservazioni meteo Italia » Resia Pass

ore: 21:55 - Osservazioni Meteo Resia Pass
Lat. 46° 50' N Lon. 10° 30' E Alt. 1800 metri s.l.m.

molto_nuvoloso Europe/Rome

15 °C

Molto Nuvoloso

Temp. 24 Ore

12 °C

16 °C

Nord

11.1 Km/h

Dew point 13 °C

Umidità 87 %

Visibilità  10 Km

Il sole sorge alle ore 06:13

Il sole tramonta alle ore 20:31

Data e Ora Cielo e Fenomeni T °C DP °C Um. % Pres. hPa Vis. km Vento km/h
Oggi h: 21:55 molto_nuvoloso Molto Nuvoloso 15 13 87 1019 10 N 11.1
Oggi h: 20:55 molto_nuvoloso Molto Nuvoloso 16 13 82 1019 10 N/NE 13
Oggi h: 19:55 molto_nuvoloso Molto Nuvoloso 16 12 77 1019 10 NE 11.1
Oggi h: 17:55 molto_nuvoloso Molto Nuvoloso 16 14 87 1019 9 N 3.7
Oggi h: 16:55 molto_nuvoloso Molto Nuvoloso 15 13 87 1019 9 N 5.5
Oggi h: 15:55 molto_nuvoloso Molto Nuvoloso 15 13 87 1019 9 N/NE 7.4
Oggi h: 14:55 coperto_pioggia Pioggia Debole 15 14 93 1019 8 N 3.7
Oggi h: 13:55 coperto_pioggia Pioggia Debole Foschia 16 12 77 1019 5 N/NE 13
Oggi h: 12:55 coperto_pioggia Pioggia Debole 16 12 77 1019 9 N/NE 13
Oggi h: 11:55 nuvoloso Nuvoloso 14 12 87 1020 9 N/NE 16.7
Oggi h: 10:55 coperto_pioggia Pioggia Debole 14 13 93 1020 9 N/NE 14.8
Oggi h: 09:55 coperto_pioggia Pioggia Debole 14 12 87 1020 6 N 7.4
Oggi h: 08:55 nuvoloso Nuvoloso 14 11 82 1019 10 N/NO 9.3
Oggi h: 07:55 nuvoloso Nuvoloso 13 11 87 1019 10 N 0
Oggi h: 06:55 sereno Sereno 12 11 93 1019 10 N 5.5
Oggi h: 05:55 sereno Sereno 12 11 93 1019 10 N 7.4
Oggi h: 04:55 sereno Sereno 12 12 100 1020 10 N/NE 7.4
Oggi h: 03:55 sereno Sereno 12 12 100 1020 10 N 9.3
Oggi h: 02:55 sereno Sereno 12 12 100 1021 10 N 5.5
Oggi h: 01:55 sereno Sereno 12 12 100 1021 10 N/NE 7.4
Oggi h: 00:55 sereno Sereno 13 12 93 1021 10 N 7.4
Ieri h: 23:55 sereno Sereno 13 12 93 1021 10 N/NE 7.4
Ieri h: 22:55 sereno Sereno 14 12 87 1021 10 N 9.3